sat.trackr.live / text

‹ back to catalog

STARLINK-32701

NORAD 62510 · 2025-003Z

PAYLOAD ACTIVE UNKNOWN

§ Identity

Operator
Country
US
Launch date
2025-01-06
Launch site
AFETR
Launch vehicle
Mass (kg)
RCS (m²)

Purposes: comms

External: N2YO · Heavens-Above · Gunter

§ Orbital elements

Epoch: 2026-05-24T16:24:06.416640Z

Period
94.27 min
Inclination
42.9997°
Eccentricity
0.0001910
Mean motion
15.27580245 rev/d
Perigee alt
481.7 km
Apogee alt
484.4 km
Semi-major
6,861.2 km
B*
3.1425e-4
RAAN
219.8102°
Arg perigee
262.4842°
Mean anomaly
97.5792°
Rev number
7,817

§ Raw data

STARLINK-327011 62510U 25003Z   26144.68340760  .00008395  00000+0  31425-3 0  99972 62510  42.9997 219.8102 0001910 262.4842  97.5792 15.27580245 78179

JSON: /api/v1/satellites/62510 · /tle

For live sub-satellite position, see the globe view (requires WebGL).

§ Visibility from observer

Set your observer location to see the next 7 days of passes ≥ 10°. The values pass through the URL so the page stays shareable.

No JS? Fill the form by hand. The geolocation button needs JavaScript.